GW6128 Weather Reports


time (UTC)temp
F
wind
direction
speed
knots
gust
knots
rain 1hr
in
rain 24hr
in
rain mn
in
humidity
%
barometer
mb
20260506114555 54 129 2.6 7.8 0.00 0.00 0.00 68 1011.2
20260506113050 56 110 2.6 6.1 0.00 0.00 0.00 64 1011.3
20260506111550 56 29 1.7 5.2 0.00 0.00 0.00 60 1011.2
20260506110047 56 67 1.7 5.2 0.00 0.00 0.00 62 1011.2
20260506104553 55 209 2.6 7.0 0.00 0.00 0.00 63 1011.2
20260506103053 56 147 1.7 6.1 0.00 0.00 0.00 63 1011.3
20260506101547 55 87 2.6 6.1 0.00 0.00 0.00 63 1011.3
20260506100105 54 102 1.7 7.0 0.00 0.00 0.00 65 1011.4
20260506094551 54 84 1.7 7.0 0.00 0.00 0.00 67 1011.5
20260506093056 54 248 1.7 7.8 0.00 0.00 0.00 67 1011.3
20260506091547 53 95 1.7 7.0 0.00 0.00 0.00 69 1011.3
20260506090047 52 66 1.7 7.0 0.00 0.00 0.00 72 1011.3
20260506084553 51 238 1.7 7.0 0.00 0.00 0.00 73 1011.2
20260506083050 52 226 1.7 8.7 0.00 0.00 0.00 72 1011.1
20260506081550 52 91 2.6 7.0 0.00 0.00 0.00 73 1011.1
20260506073055 50 66 2.6 7.0 0.00 0.00 0.00 77 1011.0
20260506071557 50 136 1.7 8.7 0.00 0.00 0.00 79 1010.9
20260506061548 47 15 0.9 5.2 0.00 0.00 0.00 85 1010.9
20260506044554 44 0 0.0 1.7 0.00 0.00 0.00 87 1010.7
20260506043052 45 0 0.0 0.9 0.00 0.00 0.00 86 1010.7
20260506041551 45 0 0.0 0.9 0.00 0.00 0.00 85 1010.7
20260506040108 46 0 0.0 0.9 0.00 0.00 0.00 84 1010.6
20260506034548 47 0 0.0 3.5 0.00 0.00 0.00 84 1010.8
20260506033053 47 237 0.0 1.7 0.00 0.00 0.00 84 1010.7
20260506031551 47 85 0.0 2.6 0.00 0.00 0.00 84 1010.9
20260506024556 48 59 0.0 1.7 0.00 0.00 0.00 85 1011.0
20260506023049 48 94 0.0 1.7 0.00 0.00 0.00 84 1011.0
20260506021547 49 0 0.0 2.6 0.00 0.00 0.00 84 1011.0
20260506020051 49 0 0.0 2.6 0.00 0.00 0.00 84 1011.0
20260506014556 49 0 0.9 3.5 0.00 0.00 0.00 83 1011.1
20260506013045 49 0 0.9 4.3 0.00 0.00 0.00 83 1011.3
20260506011550 49 77 0.9 4.3 0.00 0.00 0.00 83 1011.2
20260506010053 50 72 0.9 3.5 0.00 0.00 0.00 82 1011.2
20260506004553 50 0 1.7 4.3 0.00 0.00 0.00 82 1011.4
20260506003054 50 98 2.6 7.0 0.00 0.00 0.00 82 1011.5
20260506001558 50 56 2.6 7.0 0.00 0.00 0.00 81 1011.5
20260506000058 50 82 0.0 5.2 0.00 0.00 0.00 80 1011.6
20260505234551 50 84 2.6 5.2 0.00 0.00 0.00 79 1011.4
20260505233101 51 70 1.7 7.0 0.00 0.00 0.00 79 1011.4
20260505231553 51 68 0.9 7.0 0.00 0.00 0.00 79 1011.6
20260505230054 51 61 2.6 6.1 0.00 0.00 0.00 79 1011.6
20260505224551 52 75 1.7 7.0 0.00 0.00 0.00 79 1011.6
20260505223050 52 68 1.7 6.1 0.00 0.00 0.00 80 1011.5
20260505221558 52 303 2.6 7.8 0.00 0.00 0.00 79 1011.4
20260505220054 52 86 1.7 5.2 0.00 0.00 0.00 82 1011.4
20260505214549 52 0 0.0 1.7 0.00 0.00 0.00 82 1011.4
20260505213049 53 80 0.0 1.7 0.00 0.00 0.00 80 1011.5
20260505211547 53 0 0.0 3.5 0.00 0.00 0.00 78 1011.4
20260505210051 53 83 0.9 3.5 0.00 0.00 0.00 77 1011.4
20260505204551 53 59 0.9 3.5 0.00 0.00 0.00 77 1011.6
20260505203052 53 67 1.7 4.3 0.00 0.00 0.00 77 1011.4
20260505201551 53 55 1.7 4.3 0.00 0.00 0.00 76 1011.3
20260505200048 53 41 1.7 5.2 0.00 0.00 0.00 75 1011.1
20260505194558 53 84 1.7 7.0 0.00 0.00 0.00 75 1010.8
20260505193105 54 41 3.5 7.0 0.00 0.00 0.00 73 1010.8
20260505191547 54 75 3.5 6.1 0.00 0.00 0.00 69 1010.6
20260505190053 54 60 1.7 6.1 0.00 0.00 0.00 67 1010.4
20260505184553 55 79 1.7 5.2 0.00 0.00 0.00 67 1010.3
20260505183052 55 87 3.5 9.6 0.00 0.00 0.00 64 1010.2
20260505181545 56 62 4.3 7.8 0.00 0.00 0.00 61 1010.3
20260505180052 56 51 1.7 4.3 0.00 0.00 0.00 70 1010.3
20260505174552 57 88 1.7 5.2 0.00 0.00 0.00 73 1010.2
20260505173047 57 26 0.9 4.3 0.00 0.00 0.00 73 1010.1
20260505171551 57 71 1.7 5.2 0.00 0.00 0.00 72 1010.2
20260505170046 57 127 3.5 8.7 0.00 0.00 0.00 70 1010.4
20260505164553 59 108 1.7 7.8 0.00 0.00 0.00 68 1010.4
20260505163052 59 67 1.7 7.0 0.00 0.00 0.00 65 1010.3
20260505161551 59 108 4.3 9.6 0.00 0.00 0.00 63 1010.3
20260505153102 57 110 2.6 7.0 0.00 0.00 0.00 74 1010.6
20260505151549 57 84 1.7 8.7 0.00 0.00 0.00 74 1010.5
20260505124559 60 190 3.5 7.8 0.00 0.00 0.00 63 1011.0
20260505123107 60 131 3.5 8.7 0.00 0.00 0.00 64 1010.9
20260505121551 60 163 3.5 7.8 0.00 0.00 0.00 62 1010.9
20260505120056 60 72 4.3 8.7 0.00 0.00 0.00 63 1010.8